Time,TemperatureF,DewpointF,PressureIn,WindDirection,WindDirectionDegrees,WindSpeedMPH,WindSpeedGustMPH,Humidity,HourlyPrecipIn,Conditions,Clouds,dailyrainin,SoftwareType,DateUTC
2013-05-10 00:01:00,58.1,42.0,-100.00,SE,124,0.0,0.0,55,0.00,,,0.00,VWS V14.01,2013-05-10 07:01:00,
2013-05-10 00:06:00,58.1,42.0,-100.00,SE,124,0.0,0.0,55,0.00,,,0.00,VWS V14.01,2013-05-10 07:06:00,
2013-05-10 00:11:00,58.1,42.0,-100.00,SE,124,0.0,0.0,55,0.00,,,0.00,VWS V14.01,2013-05-10 07:11:00,
2013-05-10 00:16:00,58.1,41.6,-100.00,SE,135,0.0,0.0,54,0.00,,,0.00,VWS V14.01,2013-05-10 07:16:00,
2013-05-10 00:21:00,58.1,41.6,-100.00,SE,135,0.0,0.0,54,0.00,,,0.00,VWS V14.01,2013-05-10 07:21:00,
2013-05-10 00:26:00,58.1,41.6,-100.00,SE,135,0.0,0.0,54,0.00,,,0.00,VWS V14.01,2013-05-10 07:26:00,
2013-05-10 00:31:00,57.9,41.4,-100.00,SE,135,0.0,0.0,54,0.00,,,0.00,VWS V14.01,2013-05-10 07:31:00,
2013-05-10 00:36:00,57.6,41.1,-100.00,SE,135,0.0,0.0,54,0.00,,,0.00,VWS V14.01,2013-05-10 07:36:00,
2013-05-10 00:41:00,57.2,40.7,-100.00,SE,135,0.0,0.0,54,0.00,,,0.00,VWS V14.01,2013-05-10 07:41:00,
2013-05-10 00:46:00,57.0,41.5,-100.00,SE,135,0.0,0.0,56,0.00,,,0.00,VWS V14.01,2013-05-10 07:46:00,
2013-05-10 00:51:00,56.8,41.3,-100.00,SE,135,0.0,0.0,56,0.00,,,0.00,VWS V14.01,2013-05-10 07:51:00,
2013-05-10 00:56:00,57.0,42.0,-100.00,SE,135,0.0,0.0,57,0.00,,,0.00,VWS V14.01,2013-05-10 07:56:00,
2013-05-10 01:01:00,56.8,41.3,-100.00,SE,135,0.0,0.0,56,0.00,,,0.00,VWS V14.01,2013-05-10 08:01:00,
2013-05-10 01:06:00,56.7,41.6,-100.00,SE,135,0.0,0.0,57,0.00,,,0.00,VWS V14.01,2013-05-10 08:06:00,
2013-05-10 01:11:00,56.8,41.8,-100.00,SE,135,0.0,0.0,57,0.00,,,0.00,VWS V14.01,2013-05-10 08:11:00,
2013-05-10 01:16:00,56.8,41.8,-100.00,SE,135,0.0,0.0,57,0.00,,,0.00,VWS V14.01,2013-05-10 08:16:00,
2013-05-10 01:21:00,57.0,41.5,-100.00,SE,135,0.0,0.0,56,0.00,,,0.00,VWS V14.01,2013-05-10 08:21:00,
2013-05-10 01:26:00,57.2,41.7,-100.00,SSE,159,4.9,4.9,56,0.00,,,0.00,VWS V14.01,2013-05-10 08:26:00,
2013-05-10 01:31:00,57.0,42.0,-100.00,SSE,166,0.0,4.9,57,0.00,,,0.00,VWS V14.01,2013-05-10 08:31:00,
2013-05-10 01:36:00,56.8,41.8,-100.00,South,177,0.0,4.9,57,0.00,,,0.00,VWS V14.01,2013-05-10 08:36:00,
2013-05-10 01:41:00,56.8,41.8,-100.00,SSW,197,2.7,4.9,57,0.00,,,0.00,VWS V14.01,2013-05-10 08:41:00,
2013-05-10 01:46:00,56.7,41.6,-100.00,SSE,151,2.7,4.9,57,0.00,,,0.00,VWS V14.01,2013-05-10 08:46:00,
2013-05-10 01:51:00,56.7,42.1,-100.00,SSE,164,2.7,4.9,58,0.00,,,0.00,VWS V14.01,2013-05-10 08:51:00,
2013-05-10 01:56:00,56.5,41.9,-100.00,South,174,0.0,4.9,58,0.00,,,0.00,VWS V14.01,2013-05-10 08:56:00,
2013-05-10 02:01:00,56.3,42.2,-100.00,SSE,154,0.0,0.0,59,0.00,,,0.00,VWS V14.01,2013-05-10 09:01:00,
2013-05-10 02:06:00,55.9,42.3,-100.00,South,171,0.0,3.6,60,0.00,,,0.00,VWS V14.01,2013-05-10 09:06:00,
2013-05-10 02:11:00,55.6,41.9,-100.00,South,184,0.0,3.6,60,0.00,,,0.00,VWS V14.01,2013-05-10 09:11:00,
2013-05-10 02:16:00,55.6,42.4,-100.00,South,184,0.0,3.6,61,0.00,,,0.00,VWS V14.01,2013-05-10 09:16:00,
2013-05-10 02:21:00,55.6,42.4,-100.00,South,177,0.0,3.6,61,0.00,,,0.00,VWS V14.01,2013-05-10 09:21:00,
2013-05-10 02:26:00,55.2,42.4,-100.00,South,171,0.0,4.0,62,0.00,,,0.00,VWS V14.01,2013-05-10 09:26:00,
2013-05-10 02:31:00,55.2,42.4,-100.00,SSE,153,4.9,6.3,62,0.00,,,0.00,VWS V14.01,2013-05-10 09:31:00,
2013-05-10 02:36:00,55.4,42.6,-100.00,South,176,3.1,6.3,62,0.00,,,0.00,VWS V14.01,2013-05-10 09:36:00,
2013-05-10 02:41:00,55.4,42.2,-100.00,South,173,3.1,6.3,61,0.00,,,0.00,VWS V14.01,2013-05-10 09:41:00,
2013-05-10 02:46:00,55.2,41.6,-100.00,SE,142,4.9,6.3,60,0.00,,,0.00,VWS V14.01,2013-05-10 09:46:00,
2013-05-10 02:51:00,55.2,41.6,-100.00,SSW,204,3.1,6.3,60,0.00,,,0.00,VWS V14.01,2013-05-10 09:51:00,
2013-05-10 02:56:00,55.2,41.6,-100.00,SE,142,0.0,6.3,60,0.00,,,0.00,VWS V14.01,2013-05-10 09:56:00,
2013-05-10 03:01:00,55.0,41.4,-100.00,South,171,3.1,5.8,60,0.00,,,0.00,VWS V14.01,2013-05-10 10:01:00,
2013-05-10 03:06:00,55.0,41.4,-100.00,SSE,164,3.1,5.8,60,0.00,,,0.00,VWS V14.01,2013-05-10 10:06:00,
2013-05-10 03:11:00,55.0,41.4,-100.00,South,180,4.0,5.8,60,0.00,,,0.00,VWS V14.01,2013-05-10 10:11:00,
2013-05-10 03:16:00,55.0,41.4,-100.00,South,174,3.6,5.8,60,0.00,,,0.00,VWS V14.01,2013-05-10 10:16:00,
2013-05-10 03:21:00,55.0,41.0,-100.00,SSE,159,2.2,5.8,59,0.00,,,0.00,VWS V14.01,2013-05-10 10:21:00,
2013-05-10 03:26:00,54.9,41.2,-100.00,South,178,3.1,5.8,60,0.00,,,0.00,VWS V14.01,2013-05-10 10:26:00,
2013-05-10 03:31:00,54.5,41.3,-100.00,SSE,165,2.7,5.8,61,0.00,,,0.00,VWS V14.01,2013-05-10 10:31:00,
2013-05-10 03:36:00,54.3,41.2,-100.00,South,169,0.0,5.8,61,0.00,,,0.00,VWS V14.01,2013-05-10 10:36:00,
2013-05-10 03:41:00,54.1,41.4,-100.00,South,171,3.1,5.8,62,0.00,,,0.00,VWS V14.01,2013-05-10 10:41:00,
2013-05-10 03:46:00,54.0,41.2,-100.00,SSW,195,0.0,5.8,62,0.00,,,0.00,VWS V14.01,2013-05-10 10:46:00,
2013-05-10 03:51:00,53.8,41.1,-100.00,SSE,156,4.0,5.8,62,0.00,,,0.00,VWS V14.01,2013-05-10 10:51:00,
2013-05-10 03:56:00,53.6,40.9,-100.00,SSE,160,0.0,5.8,62,0.00,,,0.00,VWS V14.01,2013-05-10 10:56:00,
2013-05-10 04:01:00,53.6,40.9,-100.00,East,97,0.0,0.0,62,0.00,,,0.00,VWS V14.01,2013-05-10 11:01:00,
2013-05-10 04:06:00,53.6,40.9,-100.00,SSE,156,0.0,4.0,62,0.00,,,0.00,VWS V14.01,2013-05-10 11:06:00,
2013-05-10 04:11:00,53.4,41.2,-100.00,South,189,0.0,4.0,63,0.00,,,0.00,VWS V14.01,2013-05-10 11:11:00,
2013-05-10 04:16:00,53.2,41.0,-100.00,SW,221,3.1,4.0,63,0.00,,,0.00,VWS V14.01,2013-05-10 11:16:00,
2013-05-10 04:21:00,53.1,41.2,-100.00,SSE,166,0.0,4.0,64,0.00,,,0.00,VWS V14.01,2013-05-10 11:21:00,
2013-05-10 04:26:00,53.1,41.6,-100.00,South,181,0.0,4.0,65,0.00,,,0.00,VWS V14.01,2013-05-10 11:26:00,
2013-05-10 04:31:00,52.9,41.5,-100.00,SSE,158,0.0,4.0,65,0.00,,,0.00,VWS V14.01,2013-05-10 11:31:00,
2013-05-10 04:36:00,52.7,41.3,-100.00,South,170,2.2,4.0,65,0.00,,,0.00,VWS V14.01,2013-05-10 11:36:00,
2013-05-10 04:41:00,52.7,40.9,-100.00,South,172,0.0,4.0,64,0.00,,,0.00,VWS V14.01,2013-05-10 11:41:00,
2013-05-10 04:46:00,52.5,40.7,-100.00,SSE,159,0.0,4.0,64,0.00,,,0.00,VWS V14.01,2013-05-10 11:46:00,
2013-05-10 04:51:00,52.3,40.5,-100.00,SSE,159,0.0,4.0,64,0.00,,,0.00,VWS V14.01,2013-05-10 11:51:00,
2013-05-10 04:56:00,52.2,40.8,-100.00,SSW,207,0.0,4.0,65,0.00,,,0.00,VWS V14.01,2013-05-10 11:56:00,
2013-05-10 05:01:00,52.0,40.6,-100.00,SSE,164,0.0,0.0,65,0.00,,,0.00,VWS V14.01,2013-05-10 12:01:00,
2013-05-10 05:06:00,51.8,40.8,-100.00,South,178,0.0,3.1,66,0.00,,,0.00,VWS V14.01,2013-05-10 12:06:00,
2013-05-10 05:11:00,51.6,41.0,-100.00,South,172,0.0,3.1,67,0.00,,,0.00,VWS V14.01,2013-05-10 12:11:00,
2013-05-10 05:16:00,51.4,40.5,-100.00,SSE,156,0.0,3.1,66,0.00,,,0.00,VWS V14.01,2013-05-10 12:16:00,
2013-05-10 05:21:00,51.3,40.3,-100.00,SSE,154,0.0,3.1,66,0.00,,,0.00,VWS V14.01,2013-05-10 12:21:00,
2013-05-10 05:26:00,51.1,40.1,-100.00,SSW,202,0.0,3.1,66,0.00,,,0.00,VWS V14.01,2013-05-10 12:26:00,
2013-05-10 05:31:00,51.1,40.1,-100.00,SSW,202,0.0,3.1,66,0.00,,,0.00,VWS V14.01,2013-05-10 12:31:00,
2013-05-10 05:36:00,50.9,40.0,-100.00,SSW,202,0.0,3.1,66,0.00,,,0.00,VWS V14.01,2013-05-10 12:36:00,
2013-05-10 05:41:00,50.7,40.2,-100.00,SSW,202,0.0,3.1,67,0.00,,,0.00,VWS V14.01,2013-05-10 12:41:00,
2013-05-10 05:46:00,50.5,40.0,-100.00,SSW,202,0.0,3.1,67,0.00,,,0.00,VWS V14.01,2013-05-10 12:46:00,
2013-05-10 05:51:00,50.2,40.0,-100.00,SSW,202,0.0,3.1,68,0.00,,,0.00,VWS V14.01,2013-05-10 12:51:00,
2013-05-10 05:56:00,50.2,40.0,-100.00,SSW,202,0.0,3.1,68,0.00,,,0.00,VWS V14.01,2013-05-10 12:56:00,
2013-05-10 06:01:00,50.4,40.2,-100.00,SSW,202,0.0,0.0,68,0.00,,,0.00,VWS V14.01,2013-05-10 13:01:00,
2013-05-10 06:06:00,50.5,40.4,-100.00,South,184,0.0,0.0,68,0.00,,,0.00,VWS V14.01,2013-05-10 13:06:00,
2013-05-10 06:11:00,50.7,40.6,-100.00,SSW,208,0.0,0.0,68,0.00,,,0.00,VWS V14.01,2013-05-10 13:11:00,
2013-05-10 06:16:00,50.9,40.3,-100.00,South,185,0.0,0.0,67,0.00,,,0.00,VWS V14.01,2013-05-10 13:16:00,
2013-05-10 06:21:00,50.7,40.2,-100.00,SW,233,0.0,3.6,67,0.00,,,0.00,VWS V14.01,2013-05-10 13:21:00,
2013-05-10 06:26:00,50.5,40.4,-100.00,WSW,251,2.7,4.0,68,0.00,,,0.00,VWS V14.01,2013-05-10 13:26:00,
2013-05-10 06:31:00,50.7,40.9,-100.00,SSW,213,3.1,4.9,69,0.00,,,0.00,VWS V14.01,2013-05-10 13:31:00,
2013-05-10 06:36:00,50.9,40.7,-100.00,SSW,206,0.0,6.3,68,0.00,,,0.00,VWS V14.01,2013-05-10 13:36:00,
2013-05-10 06:41:00,51.4,41.2,-100.00,SW,230,0.0,6.3,68,0.00,,,0.00,VWS V14.01,2013-05-10 13:41:00,
2013-05-10 06:46:00,52.0,41.0,-100.00,SW,226,2.7,6.3,66,0.00,,,0.00,VWS V14.01,2013-05-10 13:46:00,
2013-05-10 06:51:00,52.3,40.9,-100.00,SSE,168,5.4,6.3,65,0.00,,,0.00,VWS V14.01,2013-05-10 13:51:00,
2013-05-10 06:56:00,52.9,41.0,-100.00,SSW,209,2.2,6.3,64,0.00,,,0.00,VWS V14.01,2013-05-10 13:56:00,
2013-05-10 07:01:00,53.2,41.0,-100.00,SSW,192,3.6,6.3,63,0.00,,,0.00,VWS V14.01,2013-05-10 14:01:00,
2013-05-10 07:06:00,53.8,41.1,-100.00,South,186,3.1,6.3,62,0.00,,,0.00,VWS V14.01,2013-05-10 14:06:00,
2013-05-10 07:11:00,54.3,41.2,-100.00,South,176,6.3,6.3,61,0.00,,,0.00,VWS V14.01,2013-05-10 14:11:00,
2013-05-10 07:16:00,55.6,40.6,-100.00,SE,144,8.1,8.1,57,0.00,,,0.00,VWS V14.01,2013-05-10 14:16:00,
2013-05-10 07:21:00,55.9,40.0,-100.00,SSE,153,3.6,8.1,55,0.00,,,0.00,VWS V14.01,2013-05-10 14:21:00,
2013-05-10 07:26:00,56.3,39.9,-100.00,SSE,162,5.8,10.1,54,0.00,,,0.00,VWS V14.01,2013-05-10 14:26:00,
2013-05-10 07:31:00,56.8,39.4,-100.00,SE,144,3.1,10.1,52,0.00,,,0.00,VWS V14.01,2013-05-10 14:31:00,
2013-05-10 07:36:00,57.6,39.6,-100.00,South,182,0.0,10.1,51,0.00,,,0.00,VWS V14.01,2013-05-10 14:36:00,
2013-05-10 07:40:00,58.1,40.1,-100.00,SW,219,0.0,10.1,51,0.00,,,0.00,VWS V14.01,2013-05-10 14:40:00,
2013-05-10 07:45:00,58.3,39.7,-100.00,SSW,199,5.4,10.1,50,0.00,,,0.00,VWS V14.01,2013-05-10 14:45:00,
2013-05-10 07:51:00,58.5,39.9,-100.00,SSE,166,3.1,10.1,50,0.00,,,0.00,VWS V14.01,2013-05-10 14:51:00,
2013-05-10 07:56:00,58.8,40.2,-100.00,SSE,165,0.0,10.1,50,0.00,,,0.00,VWS V14.01,2013-05-10 14:56:00,
2013-05-10 08:01:00,59.2,40.0,-100.00,SSW,195,4.9,4.9,49,0.00,,,0.00,VWS V14.01,2013-05-10 15:01:00,
2013-05-10 08:05:00,60.1,40.3,-100.00,SSW,206,0.0,5.8,48,0.00,,,0.00,VWS V14.01,2013-05-10 15:05:00,
2013-05-10 08:10:00,60.6,40.3,-100.00,SSE,164,0.0,6.3,47,0.00,,,0.00,VWS V14.01,2013-05-10 15:10:00,
2013-05-10 08:15:00,60.8,39.3,-100.00,SSW,201,3.1,6.3,45,0.00,,,0.00,VWS V14.01,2013-05-10 15:15:00,
2013-05-10 08:20:00,61.3,40.4,-100.00,SSE,152,4.0,6.3,46,0.00,,,0.00,VWS V14.01,2013-05-10 15:20:00,
2013-05-10 08:25:00,61.7,40.2,-100.00,SW,221,2.2,6.3,45,0.00,,,0.00,VWS V14.01,2013-05-10 15:25:00,
2013-05-10 08:31:00,62.2,40.7,-100.00,SSW,202,2.7,6.3,45,0.00,,,0.00,VWS V14.01,2013-05-10 15:31:00,
2013-05-10 08:35:00,62.8,40.6,-100.00,SW,227,0.0,6.3,44,0.00,,,0.00,VWS V14.01,2013-05-10 15:35:00,
2013-05-10 08:40:00,63.1,40.9,-100.00,West,265,0.0,6.3,44,0.00,,,0.00,VWS V14.01,2013-05-10 15:40:00,
2013-05-10 08:45:00,63.7,40.8,-100.00,SE,145,0.0,6.3,43,0.00,,,0.00,VWS V14.01,2013-05-10 15:45:00,
2013-05-10 08:50:00,64.0,41.1,-100.00,WSW,241,2.7,6.3,43,0.00,,,0.00,VWS V14.01,2013-05-10 15:50:00,
2013-05-10 08:55:00,64.8,41.2,-100.00,SSW,209,2.2,6.3,42,0.00,,,0.00,VWS V14.01,2013-05-10 15:55:00,
2013-05-10 09:00:00,65.1,40.9,-100.00,South,191,0.0,0.0,41,0.00,,,0.00,VWS V14.01,2013-05-10 16:00:00,
2013-05-10 09:05:00,65.5,41.2,-100.00,SSE,162,3.1,3.6,41,0.00,,,0.00,VWS V14.01,2013-05-10 16:05:00,
2013-05-10 09:10:00,66.0,41.0,-100.00,South,176,0.0,5.8,40,0.00,,,0.00,VWS V14.01,2013-05-10 16:10:00,
2013-05-10 09:15:00,66.4,40.7,-100.00,SSW,207,0.0,5.8,39,0.00,,,0.00,VWS V14.01,2013-05-10 16:15:00,
2013-05-10 09:20:00,67.1,40.7,-100.00,South,173,0.0,5.8,38,0.00,,,0.00,VWS V14.01,2013-05-10 16:20:00,
2013-05-10 09:25:00,67.8,40.6,-100.00,SSE,164,4.9,5.8,37,0.00,,,0.00,VWS V14.01,2013-05-10 16:25:00,
2013-05-10 09:30:00,68.5,40.5,-100.00,ENE,63,0.0,5.8,36,0.00,,,0.00,VWS V14.01,2013-05-10 16:30:00,
2013-05-10 09:35:00,68.9,40.2,-100.00,SE,146,0.0,5.8,35,0.00,,,0.00,VWS V14.01,2013-05-10 16:35:00,
2013-05-10 09:40:00,69.4,41.3,-100.00,SSE,168,0.0,5.8,36,0.00,,,0.00,VWS V14.01,2013-05-10 16:40:00,
2013-05-10 09:45:00,69.6,40.8,-100.00,South,179,2.2,6.3,35,0.00,,,0.00,VWS V14.01,2013-05-10 16:45:00,
2013-05-10 09:50:00,70.2,41.3,-100.00,South,173,3.1,6.3,35,0.00,,,0.00,VWS V14.01,2013-05-10 16:50:00,
2013-05-10 09:55:00,71.1,41.3,-100.00,SW,231,0.0,6.3,34,0.00,,,0.00,VWS V14.01,2013-05-10 16:55:00,
2013-05-10 10:00:00,71.6,41.0,-100.00,SSE,155,4.0,4.0,33,0.00,,,0.00,VWS V14.01,2013-05-10 17:00:00,
2013-05-10 10:05:00,72.1,41.5,-100.00,SSW,196,0.0,4.0,33,0.00,,,0.00,VWS V14.01,2013-05-10 17:05:00,
2013-05-10 10:10:00,72.7,42.0,-100.00,SSW,206,3.1,4.0,33,0.00,,,0.00,VWS V14.01,2013-05-10 17:10:00,
2013-05-10 10:15:00,73.2,41.6,-100.00,ENE,61,0.0,4.0,32,0.00,,,0.00,VWS V14.01,2013-05-10 17:15:00,
2013-05-10 10:20:00,73.6,41.1,-100.00,NW,305,0.0,4.0,31,0.00,,,0.00,VWS V14.01,2013-05-10 17:20:00,
2013-05-10 10:25:00,73.9,41.4,-100.00,SSW,199,0.0,4.0,31,0.00,,,0.00,VWS V14.01,2013-05-10 17:25:00,
2013-05-10 10:30:00,74.5,41.9,-100.00,SSE,167,0.0,5.4,31,0.00,,,0.00,VWS V14.01,2013-05-10 17:30:00,
2013-05-10 10:35:00,75.0,42.4,-100.00,NE,55,3.6,5.4,31,0.00,,,0.00,VWS V14.01,2013-05-10 17:35:00,
2013-05-10 10:40:00,75.6,42.8,-100.00,SSE,156,0.0,5.8,31,0.00,,,0.00,VWS V14.01,2013-05-10 17:40:00,
2013-05-10 10:45:00,76.3,41.7,-100.00,WSW,241,0.0,5.8,29,0.00,,,0.00,VWS V14.01,2013-05-10 17:45:00,
2013-05-10 10:50:00,76.6,42.0,-100.00,WNW,282,5.4,5.8,29,0.00,,,0.00,VWS V14.01,2013-05-10 17:50:00,
2013-05-10 10:55:00,77.2,42.5,-100.00,South,172,3.1,5.8,29,0.00,,,0.00,VWS V14.01,2013-05-10 17:55:00,
2013-05-10 11:00:00,77.9,40.3,-100.00,South,172,3.6,3.6,26,0.00,,,0.00,VWS V14.01,2013-05-10 18:00:00,
2013-05-10 11:05:00,78.6,39.9,-100.00,NNW,345,2.7,4.9,25,0.00,,,0.00,VWS V14.01,2013-05-10 18:05:00,
2013-05-10 11:10:00,78.4,40.8,-100.00,SSW,205,3.6,5.4,26,0.00,,,0.00,VWS V14.01,2013-05-10 18:10:00,
2013-05-10 11:15:00,79.3,39.5,-100.00,WSW,246,0.0,6.3,24,0.00,,,0.00,VWS V14.01,2013-05-10 18:15:00,
2013-05-10 11:20:00,79.3,38.4,-100.00,ENE,74,0.0,6.3,23,0.00,,,0.00,VWS V14.01,2013-05-10 18:20:00,
2013-05-10 11:25:00,79.9,38.8,-100.00,East,97,0.0,6.3,23,0.00,,,0.00,VWS V14.01,2013-05-10 18:25:00,
2013-05-10 11:30:00,80.4,39.3,-100.00,SW,228,0.0,6.3,23,0.00,,,0.00,VWS V14.01,2013-05-10 18:30:00,
2013-05-10 11:35:00,80.2,39.1,-100.00,NNW,339,0.0,6.3,23,0.00,,,0.00,VWS V14.01,2013-05-10 18:35:00,
2013-05-10 11:40:00,80.1,39.0,-100.00,SSW,201,0.0,6.3,23,0.00,,,0.00,VWS V14.01,2013-05-10 18:40:00,
2013-05-10 11:45:00,81.0,38.6,-100.00,ESE,112,0.0,6.3,22,0.00,,,0.00,VWS V14.01,2013-05-10 18:45:00,
2013-05-10 11:50:00,81.3,38.9,-100.00,South,179,0.0,6.3,22,0.00,,,0.00,VWS V14.01,2013-05-10 18:50:00,
2013-05-10 11:55:00,81.7,38.0,-100.00,NE,34,3.1,6.3,21,0.00,,,0.00,VWS V14.01,2013-05-10 18:55:00,
2013-05-10 12:00:00,81.9,38.1,-100.00,SE,136,0.0,0.0,21,0.00,,,0.00,VWS V14.01,2013-05-10 19:00:00,
2013-05-10 12:05:00,82.0,38.3,-100.00,NW,312,0.0,5.4,21,0.00,,,0.00,VWS V14.01,2013-05-10 19:05:00,
2013-05-10 12:10:00,82.0,38.3,-100.00,South,190,0.0,5.4,21,0.00,,,0.00,VWS V14.01,2013-05-10 19:10:00,
2013-05-10 12:15:00,82.8,38.9,-100.00,SE,144,0.0,6.3,21,0.00,,,0.00,VWS V14.01,2013-05-10 19:15:00,
2013-05-10 12:20:00,83.5,38.2,-100.00,North,10,4.0,6.7,20,0.00,,,0.00,VWS V14.01,2013-05-10 19:20:00,
2013-05-10 12:25:00,83.5,38.2,-100.00,WNW,288,0.0,6.7,20,0.00,,,0.00,VWS V14.01,2013-05-10 19:25:00,
2013-05-10 12:30:00,83.8,38.5,-100.00,SW,215,0.0,6.7,20,0.00,,,0.00,VWS V14.01,2013-05-10 19:30:00,
2013-05-10 12:35:00,84.0,39.9,-100.00,SSE,148,0.0,6.7,21,0.00,,,0.00,VWS V14.01,2013-05-10 19:35:00,
2013-05-10 12:40:00,84.7,39.3,-100.00,North,357,0.0,8.1,20,0.00,,,0.00,VWS V14.01,2013-05-10 19:40:00,
2013-05-10 12:45:00,84.6,39.1,-100.00,SSE,161,2.7,8.1,20,0.00,,,0.00,VWS V14.01,2013-05-10 19:45:00,
2013-05-10 12:50:00,84.2,38.8,-100.00,NW,315,0.0,8.1,20,0.00,,,0.00,VWS V14.01,2013-05-10 19:50:00,
2013-05-10 12:55:00,84.2,38.8,-100.00,SW,229,4.9,8.1,20,0.00,,,0.00,VWS V14.01,2013-05-10 19:55:00,
2013-05-10 13:00:00,85.1,39.6,-100.00,WSW,244,2.7,3.1,20,0.00,,,0.00,VWS V14.01,2013-05-10 20:00:00,
2013-05-10 13:05:00,85.5,39.9,-100.00,West,266,0.0,3.1,20,0.00,,,0.00,VWS V14.01,2013-05-10 20:05:00,
2013-05-10 13:10:00,85.5,38.5,-100.00,SSW,213,2.7,3.6,19,0.00,,,0.00,VWS V14.01,2013-05-10 20:10:00,
2013-05-10 13:15:00,85.8,38.8,-100.00,WSW,245,0.0,3.6,19,0.00,,,0.00,VWS V14.01,2013-05-10 20:15:00,
2013-05-10 13:20:00,85.6,38.7,-100.00,North,6,3.6,4.5,19,0.00,,,0.00,VWS V14.01,2013-05-10 20:20:00,
2013-05-10 13:25:00,85.6,38.7,-100.00,West,278,2.7,6.3,19,0.00,,,0.00,VWS V14.01,2013-05-10 20:25:00,
2013-05-10 13:30:00,86.5,39.4,-100.00,North,0,2.2,6.3,19,0.00,,,0.00,VWS V14.01,2013-05-10 20:30:00,
2013-05-10 13:35:00,86.5,39.4,-100.00,SSW,198,2.7,6.3,19,0.00,,,0.00,VWS V14.01,2013-05-10 20:35:00,
2013-05-10 13:40:00,86.7,39.6,-100.00,WSW,250,2.7,6.3,19,0.00,,,0.00,VWS V14.01,2013-05-10 20:40:00,
2013-05-10 13:45:00,86.4,39.3,-100.00,NNE,23,2.7,6.3,19,0.00,,,0.00,VWS V14.01,2013-05-10 20:45:00,
2013-05-10 13:50:00,85.6,38.7,-100.00,NE,51,3.1,6.3,19,0.00,,,0.00,VWS V14.01,2013-05-10 20:50:00,
2013-05-10 13:55:00,86.2,39.1,-100.00,West,270,3.1,6.3,19,0.00,,,0.00,VWS V14.01,2013-05-10 20:55:00,
2013-05-10 14:00:00,86.9,39.7,-100.00,NNW,342,3.6,4.5,19,0.00,,,0.00,VWS V14.01,2013-05-10 21:00:00,
2013-05-10 14:05:00,87.4,40.2,-100.00,West,279,0.0,5.4,19,0.00,,,0.00,VWS V14.01,2013-05-10 21:05:00,
2013-05-10 14:10:00,88.2,40.8,-100.00,West,265,6.3,6.3,19,0.00,,,0.00,VWS V14.01,2013-05-10 21:10:00,
2013-05-10 14:15:00,88.9,39.9,-100.00,South,176,6.3,6.3,18,0.00,,,0.00,VWS V14.01,2013-05-10 21:15:00,
2013-05-10 14:20:00,88.9,39.9,-100.00,NNW,328,2.7,6.3,18,0.00,,,0.00,VWS V14.01,2013-05-10 21:20:00,
2013-05-10 14:25:00,88.7,39.8,-100.00,SSE,166,4.0,7.6,18,0.00,,,0.00,VWS V14.01,2013-05-10 21:25:00,
2013-05-10 14:30:00,89.1,40.1,-100.00,WNW,300,2.2,7.6,18,0.00,,,0.00,VWS V14.01,2013-05-10 21:30:00,
2013-05-10 14:35:00,89.1,40.1,-100.00,SW,227,2.7,7.6,18,0.00,,,0.00,VWS V14.01,2013-05-10 21:35:00,
2013-05-10 14:40:00,89.1,40.1,-100.00,West,267,3.6,7.6,18,0.00,,,0.00,VWS V14.01,2013-05-10 21:40:00,
2013-05-10 14:45:00,88.9,39.9,-100.00,South,173,0.0,7.6,18,0.00,,,0.00,VWS V14.01,2013-05-10 21:45:00,
2013-05-10 14:50:00,89.4,40.4,-100.00,West,275,4.9,7.6,18,0.00,,,0.00,VWS V14.01,2013-05-10 21:50:00,
2013-05-10 14:55:00,89.1,40.1,-100.00,NNW,333,0.0,7.6,18,0.00,,,0.00,VWS V14.01,2013-05-10 21:55:00,
2013-05-10 14:58:00,88.7,39.8,-100.00,NE,52,0.0,7.6,18,0.00,,,0.00,VWS V14.01,2013-05-10 21:58:00,
2013-05-10 15:03:00,89.2,40.2,-100.00,SSW,205,3.6,4.9,18,0.00,,,0.00,VWS V14.01,2013-05-10 22:03:00,
2013-05-10 15:08:00,89.8,40.7,-100.00,SSE,158,6.3,6.3,18,0.00,,,0.00,VWS V14.01,2013-05-10 22:08:00,
2013-05-10 15:13:00,89.8,40.7,-100.00,SW,229,2.2,6.3,18,0.00,,,0.00,VWS V14.01,2013-05-10 22:13:00,
2013-05-10 15:18:00,89.2,40.2,-100.00,SSW,206,0.0,6.3,18,0.00,,,0.00,VWS V14.01,2013-05-10 22:18:00,
2013-05-10 15:23:00,89.4,40.4,-100.00,NNW,343,3.6,6.3,18,0.00,,,0.00,VWS V14.01,2013-05-10 22:23:00,
2013-05-10 15:28:00,89.8,39.2,-100.00,SW,228,0.0,6.3,17,0.00,,,0.00,VWS V14.01,2013-05-10 22:28:00,
2013-05-10 15:33:00,90.3,39.6,-100.00,SW,231,2.7,6.3,17,0.00,,,0.00,VWS V14.01,2013-05-10 22:33:00,
2013-05-10 15:38:00,89.8,40.7,-100.00,WSW,238,3.1,8.1,18,0.00,,,0.00,VWS V14.01,2013-05-10 22:38:00,
2013-05-10 15:43:00,89.8,40.7,-100.00,SW,217,0.0,8.1,18,0.00,,,0.00,VWS V14.01,2013-05-10 22:43:00,
2013-05-10 15:48:00,89.8,40.7,-100.00,WNW,302,0.0,8.1,18,0.00,,,0.00,VWS V14.01,2013-05-10 22:48:00,
2013-05-10 15:53:00,90.1,41.0,-100.00,WSW,238,3.6,8.1,18,0.00,,,0.00,VWS V14.01,2013-05-10 22:53:00,
2013-05-10 15:58:00,90.0,40.8,-100.00,WNW,300,2.7,8.1,18,0.00,,,0.00,VWS V14.01,2013-05-10 22:58:00,
2013-05-10 16:03:00,89.2,40.2,-100.00,NW,307,0.0,3.6,18,0.00,,,0.00,VWS V14.01,2013-05-10 23:03:00,
2013-05-10 16:08:00,89.1,40.1,-100.00,East,95,3.1,5.4,18,0.00,,,0.00,VWS V14.01,2013-05-10 23:08:00,
2013-05-10 16:13:00,89.4,40.4,-100.00,WSW,241,3.1,5.4,18,0.00,,,0.00,VWS V14.01,2013-05-10 23:13:00,
2013-05-10 16:18:00,89.8,39.2,-100.00,West,270,0.0,5.4,17,0.00,,,0.00,VWS V14.01,2013-05-10 23:18:00,
2013-05-10 16:23:00,89.6,39.1,-100.00,ENE,61,0.0,6.3,17,0.00,,,0.00,VWS V14.01,2013-05-10 23:23:00,
2013-05-10 16:28:00,88.9,39.9,-100.00,SW,236,0.0,6.3,18,0.00,,,0.00,VWS V14.01,2013-05-10 23:28:00,
2013-05-10 16:33:00,88.9,39.9,-100.00,WNW,298,0.0,6.3,18,0.00,,,0.00,VWS V14.01,2013-05-10 23:33:00,
2013-05-10 16:38:00,88.5,39.7,-100.00,North,0,2.7,6.3,18,0.00,,,0.00,VWS V14.01,2013-05-10 23:38:00,
2013-05-10 16:43:00,88.2,39.4,-100.00,WNW,301,5.8,6.3,18,0.00,,,0.00,VWS V14.01,2013-05-10 23:43:00,
2013-05-10 16:48:00,88.3,39.5,-100.00,NNW,334,4.9,6.3,18,0.00,,,0.00,VWS V14.01,2013-05-10 23:48:00,
2013-05-10 16:53:00,88.0,39.2,-100.00,West,263,0.0,6.3,18,0.00,,,0.00,VWS V14.01,2013-05-10 23:53:00,
2013-05-10 16:58:00,88.0,39.2,-100.00,WSW,254,4.9,6.3,18,0.00,,,0.00,VWS V14.01,2013-05-10 23:58:00,
2013-05-10 17:03:00,88.5,39.7,-100.00,NE,42,3.1,7.6,18,0.00,,,0.00,VWS V14.01,2013-05-11 00:03:00,
2013-05-10 17:08:00,87.8,39.1,-100.00,North,357,0.0,7.6,18,0.00,,,0.00,VWS V14.01,2013-05-11 00:08:00,
2013-05-10 17:13:00,87.3,38.6,-100.00,North,353,5.8,7.6,18,0.00,,,0.00,VWS V14.01,2013-05-11 00:13:00,
2013-05-10 17:18:00,87.1,38.5,-100.00,NW,320,3.1,7.6,18,0.00,,,0.00,VWS V14.01,2013-05-11 00:18:00,
2013-05-10 17:23:00,86.7,38.2,-100.00,WNW,298,4.0,7.6,18,0.00,,,0.00,VWS V14.01,2013-05-11 00:23:00,
2013-05-10 17:28:00,86.5,38.0,-100.00,WSW,256,2.7,7.6,18,0.00,,,0.00,VWS V14.01,2013-05-11 00:28:00,
2013-05-10 17:33:00,86.5,39.4,-100.00,WSW,244,6.7,8.3,19,0.00,,,0.00,VWS V14.01,2013-05-11 00:33:00,
2013-05-10 17:38:00,86.2,39.1,-100.00,WSW,246,5.8,8.3,19,0.00,,,0.00,VWS V14.01,2013-05-11 00:38:00,
2013-05-10 17:43:00,85.6,38.7,-100.00,WSW,251,4.0,9.6,19,0.00,,,0.00,VWS V14.01,2013-05-11 00:43:00,
2013-05-10 17:48:00,84.6,37.8,-100.00,South,188,5.4,9.6,19,0.00,,,0.00,VWS V14.01,2013-05-11 00:48:00,
2013-05-10 17:53:00,84.0,38.7,-100.00,SSW,207,3.6,9.6,20,0.00,,,0.00,VWS V14.01,2013-05-11 00:53:00,
2013-05-10 17:58:00,83.7,38.4,-100.00,West,272,0.0,9.6,20,0.00,,,0.00,VWS V14.01,2013-05-11 00:58:00,
2013-05-10 18:03:00,83.3,38.1,-100.00,SW,221,4.0,7.6,20,0.00,,,0.00,VWS V14.01,2013-05-11 01:03:00,
2013-05-10 18:08:00,81.7,38.0,-100.00,SW,226,3.6,8.7,21,0.00,,,0.00,VWS V14.01,2013-05-11 01:08:00,
2013-05-10 18:13:00,80.4,38.1,-100.00,South,190,8.1,9.6,22,0.00,,,0.00,VWS V14.01,2013-05-11 01:13:00,
2013-05-10 18:18:00,79.5,37.4,-100.00,SSW,209,4.9,9.6,22,0.00,,,0.00,VWS V14.01,2013-05-11 01:18:00,
2013-05-10 18:23:00,79.0,38.1,-100.00,South,172,2.7,9.6,23,0.00,,,0.00,VWS V14.01,2013-05-11 01:23:00,
2013-05-10 18:28:00,78.8,39.0,-100.00,WSW,252,9.6,9.6,24,0.00,,,0.00,VWS V14.01,2013-05-11 01:28:00,
2013-05-10 18:33:00,78.1,42.4,-100.00,WSW,250,2.2,9.6,28,0.00,,,0.00,VWS V14.01,2013-05-11 01:33:00,
2013-05-10 18:38:00,77.2,44.2,-100.00,South,185,2.2,9.6,31,0.00,,,0.00,VWS V14.01,2013-05-11 01:38:00,
2013-05-10 18:43:00,76.5,43.6,-100.00,SSW,192,2.7,9.6,31,0.00,,,0.00,VWS V14.01,2013-05-11 01:43:00,
2013-05-10 18:48:00,76.5,43.6,-100.00,SSW,209,3.6,9.6,31,0.00,,,0.00,VWS V14.01,2013-05-11 01:48:00,
2013-05-10 19:11:00,77.0,39.5,-100.00,WSW,258,4.0,4.0,26,0.00,,,0.00,VWS V14.01,2013-05-11 02:11:00,
2013-05-10 19:16:00,76.6,39.2,-100.00,West,259,3.6,6.3,26,0.00,,,0.00,VWS V14.01,2013-05-11 02:16:00,
2013-05-10 19:21:00,76.3,39.9,-100.00,WNW,284,0.0,6.3,27,0.00,,,0.00,VWS V14.01,2013-05-11 02:21:00,
2013-05-10 19:26:00,75.7,39.4,-100.00,West,281,0.0,6.3,27,0.00,,,0.00,VWS V14.01,2013-05-11 02:26:00,
2013-05-10 19:31:00,75.4,40.0,-100.00,ENE,74,0.0,6.3,28,0.00,,,0.00,VWS V14.01,2013-05-11 02:31:00,
2013-05-10 19:36:00,74.8,42.2,-100.00,ENE,62,0.0,6.3,31,0.00,,,0.00,VWS V14.01,2013-05-11 02:36:00,
2013-05-10 19:41:00,74.5,41.0,-100.00,East,88,3.1,6.3,30,0.00,,,0.00,VWS V14.01,2013-05-11 02:41:00,
2013-05-10 19:46:00,74.3,37.2,-100.00,East,87,0.0,6.3,26,0.00,,,0.00,VWS V14.01,2013-05-11 02:46:00,
2013-05-10 19:51:00,74.5,37.4,-100.00,North,350,4.0,6.3,26,0.00,,,0.00,VWS V14.01,2013-05-11 02:51:00,
2013-05-10 19:56:00,75.0,39.7,-100.00,WNW,298,0.0,6.3,28,0.00,,,0.00,VWS V14.01,2013-05-11 02:56:00,
2013-05-10 20:01:00,74.8,40.5,-100.00,West,269,0.0,0.0,29,0.00,,,0.00,VWS V14.01,2013-05-11 03:01:00,
2013-05-10 20:06:00,74.3,41.7,-100.00,West,261,3.6,3.6,31,0.00,,,0.00,VWS V14.01,2013-05-11 03:06:00,
2013-05-10 20:11:00,73.6,40.3,-100.00,WSW,248,0.0,4.0,30,0.00,,,0.00,VWS V14.01,2013-05-11 03:11:00,
2013-05-10 20:16:00,73.0,40.6,-100.00,SW,233,0.0,4.0,31,0.00,,,0.00,VWS V14.01,2013-05-11 03:16:00,
2013-05-10 20:21:00,72.5,40.2,-100.00,WSW,249,0.0,4.0,31,0.00,,,0.00,VWS V14.01,2013-05-11 03:21:00,
2013-05-10 20:26:00,72.0,40.5,-100.00,WSW,243,0.0,4.0,32,0.00,,,0.00,VWS V14.01,2013-05-11 03:26:00,
2013-05-10 20:31:00,71.4,40.8,-100.00,WSW,243,0.0,4.0,33,0.00,,,0.00,VWS V14.01,2013-05-11 03:31:00,
2013-05-10 20:36:00,70.7,41.7,-100.00,WSW,237,0.0,4.0,35,0.00,,,0.00,VWS V14.01,2013-05-11 03:36:00,
2013-05-10 20:41:00,70.2,42.0,-100.00,WSW,237,0.0,4.0,36,0.00,,,0.00,VWS V14.01,2013-05-11 03:41:00,
2013-05-10 20:46:00,69.8,42.4,-100.00,WSW,237,0.0,4.0,37,0.00,,,0.00,VWS V14.01,2013-05-11 03:46:00,
2013-05-10 20:51:00,69.8,43.1,-100.00,WSW,244,0.0,4.0,38,0.00,,,0.00,VWS V14.01,2013-05-11 03:51:00,
2013-05-10 20:56:00,69.6,42.9,-100.00,WSW,244,0.0,4.0,38,0.00,,,0.00,VWS V14.01,2013-05-11 03:56:00,
2013-05-10 21:01:00,69.6,43.6,-100.00,WNW,284,0.0,0.0,39,0.00,,,0.00,VWS V14.01,2013-05-11 04:01:00,
2013-05-10 21:06:00,69.6,43.6,-100.00,West,276,0.0,0.0,39,0.00,,,0.00,VWS V14.01,2013-05-11 04:06:00,
2013-05-10 21:11:00,69.3,43.9,-100.00,West,273,0.0,0.0,40,0.00,,,0.00,VWS V14.01,2013-05-11 04:11:00,
2013-05-10 21:16:00,69.1,43.8,-100.00,West,273,0.0,0.0,40,0.00,,,0.00,VWS V14.01,2013-05-11 04:16:00,
2013-05-10 21:21:00,68.9,44.2,-100.00,West,262,0.0,0.0,41,0.00,,,0.00,VWS V14.01,2013-05-11 04:21:00,
2013-05-10 21:26:00,68.7,44.7,-100.00,West,262,0.0,0.0,42,0.00,,,0.00,VWS V14.01,2013-05-11 04:26:00,
2013-05-10 21:31:00,68.4,44.4,-100.00,West,262,0.0,0.0,42,0.00,,,0.00,VWS V14.01,2013-05-11 04:31:00,
2013-05-10 21:36:00,68.2,44.2,-100.00,West,262,0.0,0.0,42,0.00,,,0.00,VWS V14.01,2013-05-11 04:36:00,
2013-05-10 21:41:00,67.8,44.5,-100.00,West,262,0.0,0.0,43,0.00,,,0.00,VWS V14.01,2013-05-11 04:41:00,
2013-05-10 21:46:00,68.0,44.1,-100.00,West,262,0.0,0.0,42,0.00,,,0.00,VWS V14.01,2013-05-11 04:46:00,
2013-05-10 21:51:00,68.2,44.2,-100.00,WSW,249,0.0,0.0,42,0.00,,,0.00,VWS V14.01,2013-05-11 04:51:00,
2013-05-10 21:56:00,68.2,44.2,-100.00,WSW,256,0.0,2.7,42,0.00,,,0.00,VWS V14.01,2013-05-11 04:56:00,
2013-05-10 22:01:00,68.0,44.1,-100.00,WSW,256,0.0,0.0,42,0.00,,,0.00,VWS V14.01,2013-05-11 05:01:00,
2013-05-10 22:06:00,67.6,44.4,-100.00,WSW,256,0.0,0.0,43,0.00,,,0.00,VWS V14.01,2013-05-11 05:06:00,
2013-05-10 22:11:00,67.3,44.0,-100.00,WSW,256,0.0,0.0,43,0.00,,,0.00,VWS V14.01,2013-05-11 05:11:00,
2013-05-10 22:16:00,66.9,43.7,-100.00,WSW,256,0.0,0.0,43,0.00,,,0.00,VWS V14.01,2013-05-11 05:16:00,
2013-05-10 22:21:00,66.4,44.4,-100.00,WSW,256,0.0,0.0,45,0.00,,,0.00,VWS V14.01,2013-05-11 05:21:00,
2013-05-10 22:26:00,65.8,43.9,-100.00,WSW,256,0.0,0.0,45,0.00,,,0.00,VWS V14.01,2013-05-11 05:26:00,
2013-05-10 22:31:00,65.5,43.6,-100.00,WSW,256,0.0,0.0,45,0.00,,,0.00,VWS V14.01,2013-05-11 05:31:00,
2013-05-10 22:36:00,65.1,43.8,-100.00,WSW,256,0.0,0.0,46,0.00,,,0.00,VWS V14.01,2013-05-11 05:36:00,
2013-05-10 22:41:00,64.6,43.4,-100.00,WSW,256,0.0,0.0,46,0.00,,,0.00,VWS V14.01,2013-05-11 05:41:00,
2013-05-10 22:46:00,64.4,43.2,-100.00,WSW,256,0.0,0.0,46,0.00,,,0.00,VWS V14.01,2013-05-11 05:46:00,
2013-05-10 22:51:00,64.0,43.4,-100.00,WSW,256,0.0,0.0,47,0.00,,,0.00,VWS V14.01,2013-05-11 05:51:00,
2013-05-10 22:56:00,63.9,43.3,-100.00,WSW,256,0.0,0.0,47,0.00,,,0.00,VWS V14.01,2013-05-11 05:56:00,
2013-05-10 23:01:00,63.7,44.2,-100.00,WSW,256,0.0,0.0,49,0.00,,,0.00,VWS V14.01,2013-05-11 06:01:00,
2013-05-10 23:06:00,63.1,43.2,-100.00,WSW,256,0.0,0.0,48,0.00,,,0.00,VWS V14.01,2013-05-11 06:06:00,
2013-05-10 23:11:00,62.8,43.9,-100.00,WSW,256,0.0,0.0,50,0.00,,,0.00,VWS V14.01,2013-05-11 06:11:00,
2013-05-10 23:16:00,62.6,43.7,-100.00,WSW,256,0.0,0.0,50,0.00,,,0.00,VWS V14.01,2013-05-11 06:16:00,
2013-05-10 23:21:00,62.2,43.4,-100.00,WSW,256,0.0,0.0,50,0.00,,,0.00,VWS V14.01,2013-05-11 06:21:00,
2013-05-10 23:26:00,62.1,43.2,-100.00,WSW,256,0.0,0.0,50,0.00,,,0.00,VWS V14.01,2013-05-11 06:26:00,
2013-05-10 23:31:00,61.9,43.6,-100.00,WSW,256,0.0,0.0,51,0.00,,,0.00,VWS V14.01,2013-05-11 06:31:00,
2013-05-10 23:36:00,61.7,43.4,-100.00,WSW,256,0.0,0.0,51,0.00,,,0.00,VWS V14.01,2013-05-11 06:36:00,
2013-05-10 23:41:00,61.7,43.9,-100.00,WSW,256,0.0,0.0,52,0.00,,,0.00,VWS V14.01,2013-05-11 06:41:00,
2013-05-10 23:46:00,61.5,43.8,-100.00,WSW,256,0.0,0.0,52,0.00,,,0.00,VWS V14.01,2013-05-11 06:46:00,
2013-05-10 23:51:00,61.2,43.9,-100.00,WSW,256,0.0,0.0,53,0.00,,,0.00,VWS V14.01,2013-05-11 06:51:00,
2013-05-10 23:56:00,61.0,43.2,-100.00,WSW,256,0.0,0.0,52,0.00,,,0.00,VWS V14.01,2013-05-11 06:56:00,